Location: Banios
(43.0451°N, 0.2335°E)
Time: 17:49:04
(UTC+00:00)

Cosmos 1606 Rocket - Visible Passes

Search period start: 14 May 2021 00:00
Search period end: 24 May 2021 00:00
Orbit: 602 x 633 km, 82.5° (Epoch: 13 May)

Date Brightness Start Highest point End Pass type
(mag) Time Alt. Az. Time Alt. Az. Time Alt. Az.
14 May 3.6 03:14:56 10° N 03:19:22 86° E 03:23:48 10° S visible
15 May 6.3 01:55:23 10° NNE 01:58:00 15° ENE 02:00:37 10° ESE visible
15 May 3.8 03:31:52 10° NNW 03:36:09 51° W 03:40:26 10° SSW visible
16 May 5.6 02:11:20 10° NNE 02:15:04 26° ENE 02:18:48 10° SE visible
16 May 4.6 03:49:05 10° NNW 03:52:51 28° W 03:56:36 10° SSW visible
17 May 4.5 02:27:45 10° N 02:32:02 46° ENE 02:36:19 10° SSE visible
18 May 3.6 02:44:28 10° N 02:48:55 86° E 02:53:02 12° S visible
19 May 6.3 01:24:53 10° NNE 01:27:33 15° ENE 01:30:13 10° ESE visible
19 May 3.8 03:01:23 10° NNW 03:05:41 51° W 03:09:09 15° SSW visible
20 May 5.5 01:40:51 10° NNE 01:44:37 26° ENE 01:48:16 11° SE visible
20 May 4.6 03:18:36 10° NNW 03:22:23 28° W 03:25:21 14° SW visible
21 May 4.5 01:57:17 10° N 02:01:35 47° ENE 02:04:30 19° SE visible
21 May 5.3 03:36:19 10° NW 03:39:00 16° W 03:41:36 10° WSW visible
22 May 3.5 02:13:59 10° N 02:18:28 87° E 02:20:48 28° S visible
23 May 6.2 00:54:24 10° NNE 00:57:06 16° ENE 00:59:47 10° ESE visible
23 May 3.8 02:30:56 10° NNW 02:35:15 50° W 02:37:08 30° SSW visible
